{"data":{"norad_id":66842,"intl_designator":"2025-280X","name":"STARLINK-35769","alt_names":[],"object_type":"PAYLOAD","status":"ACTIVE","operator":null,"country":"US","launch_date":"2025-12-02","launch_site_code":"AFWTR","launch_vehicle":null,"mission":null,"orbit_class":"UNKNOWN","rcs_meters":null,"size_class":null,"mass_kg":null,"dimensions":null,"purposes":["comms"],"wikipedia_slug":null,"has_3d_model":false,"image_url":null,"decayed_at":null,"tle_current":{"epoch":"2026-09-20T06:04:31.022976Z","epoch_age_seconds":105654,"freshness":"FRESH","line1":"1 66842U 25280X   26263.25313684  .00003908  00000+0  33505-3 0  9992","line2":"2 66842  69.9999 203.7259 0002707 269.4477  90.6372 14.98335835 45221","mean_motion":14.98335835,"eccentricity":0.0002707,"inclination_deg":69.9999,"raan_deg":203.7259,"arg_perigee_deg":269.4477,"mean_anomaly_deg":90.6372,"bstar":0.00033505,"rev_number":4522,"period_min":96.106624854234,"perigee_km":570.15643441579,"apogee_km":573.91925907782,"semimajor_km":6950.1748467468,"source":"CELESTRAK","updated_at":"2026-09-21T09:00:36.024029Z"}}}